Booneville, Arkansas, United States (72927)
Lat: 35.14N, Lon: 93.92W
Wx Zone: ARZ030
Local Info
Past Weather Observations for Saturday, December 13, 2014

NOTE: This archive is for the closest National Weather Service station to Booneville. Information may differ from the station used for current weather conditions.

Click here for Long-term Archive

Time Weather Temperature Dewpoint Humidity Pressure Winds Precip Visibility
23:53
Clear
Fog And Mist
48°F / 9°C 46°F / 8°C 94% 30.12 in
(1020 mb)
ENE 5.8 mph
(ENE 9 kph)
- 4SM
23:23
Clear
Fog And Mist
48°F / 9°C 46°F / 8°C 94% 30.12 in
(1020 mb)
E 5.8 mph
(E 9 kph)
- 4SM
22:53
Clear
Fog And Mist
48°F / 9°C 46°F / 8°C 94% 30.12 in
(1020 mb)
NE 4.6 mph
(NE 7 kph)
- 2 1/2SM
21:53
Clear
Fog And Mist
46°F / 8°C 45°F / 7°C 93% 30.12 in
(1020 mb)
NE 6.9 mph
(NE 11 kph)
- 2 1/2SM
20:53
Clear
Fog And Mist
48°F / 9°C 46°F / 8°C 94% 30.12 in
(1020 mb)
NE 6.9 mph
(NE 11 kph)
- 3SM
19:53
Clear
Fog And Mist
48°F / 9°C 46°F / 8°C 94% 30.15 in
(1021 mb)
NE 5.8 mph
(NE 9 kph)
- 4SM
18:53
Clear
50°F / 10°C 46°F / 8°C 88% 30.15 in
(1021 mb)
NE 6.9 mph
(NE 11 kph)
- 7SM
17:53
Clear
52°F / 11°C 46°F / 8°C 82% 30.15 in
(1021 mb)
ENE 8.1 mph
(ENE 13 kph)
- 9SM
16:53
Overcast
57°F / 14°C 48°F / 9°C 72% 30.15 in
(1021 mb)
ENE 10.4 mph
(ENE 17 kph)
- 10SM
15:53
Mostly Cloudy
61°F / 16°C 48°F / 9°C 63% 30.15 in
(1021 mb)
ENE 9.2 mph
(ENE 15 kph)
- 10SM
14:53
Overcast
61°F / 16°C 48°F / 9°C 63% 30.15 in
(1021 mb)
ENE 9.2 mph
(ENE 15 kph)
- 10SM
13:53
Clear
61°F / 16°C 48°F / 9°C 63% 30.15 in
(1021 mb)
ENE 9.2 mph
(ENE 15 kph)
- 10SM
12:53
Partly Cloudy
55°F / 13°C 46°F / 8°C 72% 30.18 in
(1022 mb)
ENE 10.4 mph
(ENE 17 kph)
- 9SM
12:46
Partly Cloudy
55°F / 13°C 46°F / 8°C 72% 30.18 in
(1022 mb)
ENE 10.4 mph
(ENE 17 kph)
- 9SM
11:53
Overcast
54°F / 12°C 46°F / 8°C 77% 30.21 in
(1023 mb)
ENE 10.4 mph
(ENE 17 kph)
- 8SM
11:43
Overcast
54°F / 12°C 46°F / 8°C 77% 30.24 in
(1024 mb)
ENE 11.5 mph
(ENE 19 kph)
- 8SM
10:53
Overcast
52°F / 11°C 45°F / 7°C 77% 30.27 in
(1025 mb)
ENE 10.4 mph
(ENE 17 kph)
- 7SM
09:53
Overcast
Hazy
48°F / 9°C 45°F / 7°C 87% 30.27 in
(1025 mb)
E 10.4 mph
(E 17 kph)
- 5SM
08:53
Overcast
Fog And Mist
46°F / 8°C 43°F / 6°C 87% 30.27 in
(1025 mb)
ENE 11.5 mph
(ENE 19 kph)
- 4SM
08:44
Overcast
Fog And Mist
46°F / 8°C 43°F / 6°C 87% 30.27 in
(1025 mb)
E 10.4 mph
(E 17 kph)
- 4SM
07:53
Overcast
Fog And Mist
46°F / 8°C 43°F / 6°C 87% 30.27 in
(1025 mb)
E 8.1 mph
(E 13 kph)
- 3SM
07:44
Overcast
Fog And Mist
46°F / 8°C 43°F / 6°C 87% 30.27 in
(1025 mb)
ENE 9.2 mph
(ENE 15 kph)
- 2 1/2SM
06:53
Overcast
Fog And Mist
45°F / 7°C 43°F / 6°C 93% 30.27 in
(1025 mb)
E 9.2 mph
(E 15 kph)
- 4SM
06:34
Overcast
Fog And Mist
45°F / 7°C 43°F / 6°C 93% 30.27 in
(1025 mb)
ENE 9.2 mph
(ENE 15 kph)
- 4SM
05:53
Overcast
Fog And Mist
46°F / 8°C 43°F / 6°C 87% 30.27 in
(1025 mb)
ENE 9.2 mph
(ENE 15 kph)
- 4SM
04:53
Overcast
Fog And Mist
45°F / 7°C 43°F / 6°C 93% 30.27 in
(1025 mb)
ENE 11.5 mph
(ENE 19 kph)
- 4SM
04:49
Overcast
Fog And Mist
45°F / 7°C 43°F / 6°C 93% 30.27 in
(1025 mb)
ENE 10.4 mph
(ENE 17 kph)
- 4SM
04:10
Overcast
Fog And Mist
45°F / 7°C 43°F / 6°C 93% 30.27 in
(1025 mb)
E 8.1 mph
(E 13 kph)
- 4SM
03:53
Overcast
Fog And Mist
45°F / 7°C 43°F / 6°C 93% 30.27 in
(1025 mb)
ENE 8.1 mph
(ENE 13 kph)
- 4SM
02:53
Overcast
Fog And Mist
45°F / 7°C 43°F / 6°C 93% 30.27 in
(1025 mb)
E 8.1 mph
(E 13 kph)
- 4SM
01:53
Overcast
Fog And Mist
45°F / 7°C 43°F / 6°C 93% 30.3 in
(1026 mb)
E 6.9 mph
(E 11 kph)
- 4SM
01:51
Overcast
Fog And Mist
45°F / 7°C 43°F / 6°C 93% 30.3 in
(1026 mb)
E 10.4 mph
(E 17 kph)
- 4SM
00:53
Overcast
Fog And Mist
45°F / 7°C 43°F / 6°C 93% 30.3 in
(1026 mb)
ENE 11.5 mph
(ENE 19 kph)
- 5SM
Time Weather Temperature Dewpoint Humidity Pressure Winds Precip Visibility


Weather for websites

WeatherForYou.com, LLC is not responsible for any damages or problems caused by this service. Current weather conditions are obtained from the closest station including government and personal stations which may have varying degrees of accuracy. Weather forecasts are derived from the NOAA NDFD. Like all things, this site belongs to Jesus Christ... He just trusts me to maintain it. If you have any questions or comments email webmaster@weatherforyou.com

Copyright © 2014, WeatherForYou.com LLC. All rights reserved.